When you browse on this site, cookies collect data to enhance your experience and personalize the content and advertising you see.
Visit our Privacy Policy to learn more. By continuing to use the site, you agree to this use of cookies and data.
  • En España
  • Lista de países
  • Para 7 días
  • Temperatura del agua
  • El tiempo en el mapa
  • Informadores
  • user-avatar
    Iniciar sesión

    Tiempo cada hora Akkol'

    Hoy, 14 Noviembre, Jueves

    Tiempo Temperatura Precipitaciones Viento Presión Humedad
    00:00 -3°C° 0.1 mm 0 mps 729 mmHg 97%
    01:00 -3°C° 0.1 mm 0 mps 729 mmHg 97%
    02:00 -3°C° 0.1 mm 1 mps 729 mmHg 97%
    03:00 -3°C° 0.2 mm 1 mps 729 mmHg 97%
    04:00 -5°C° 0.2 mm 2 mps 729 mmHg 97%
    05:00 -6°C° 0.2 mm 3 mps 730 mmHg 96%
    06:00 -7°C° 0.1 mm 4 mps 730 mmHg 96%
    07:00 -8°C° 0.1 mm 5 mps 730 mmHg 95%
    08:00 -10°C° 0.1 mm 6 mps 730 mmHg 94%
    09:00 -10°C° 0 mm 6 mps 731 mmHg 93%
    10:00 -10°C° 0 mm 6 mps 732 mmHg 92%
    11:00 -11°C° 0 mm 6 mps 732 mmHg 92%
    12:00 -11°C° 0 mm 6 mps 733 mmHg 91%
    13:00 -11°C° 0 mm 6 mps 733 mmHg 91%
    14:00 -11°C° 0 mm 6 mps 733 mmHg 91%
    15:00 -12°C° 0 mm 6 mps 734 mmHg 91%
    16:00 -14°C° 0 mm 6 mps 735 mmHg 91%
    17:00 -15°C° 0 mm 6 mps 736 mmHg 91%
    18:00 -15°C° 0 mm 6 mps 736 mmHg 91%
    19:00 -15°C° 0 mm 6 mps 737 mmHg 91%
    20:00 -16°C° 0 mm 6 mps 737 mmHg 91%
    21:00 -17°C° 0 mm 5 mps 738 mmHg 92%
    22:00 -18°C° 0 mm 5 mps 738 mmHg 92%
    23:00 -19°C° 0 mm 5 mps 739 mmHg 93%

    Mañana, 15 Noviembre, Viernes

    Tiempo Temperatura Precipitaciones Viento Presión Humedad
    00:00 -18°C° 0 mm 4 mps 739 mmHg 93%
    01:00 -19°C° 0 mm 4 mps 739 mmHg 94%
    02:00 -20°C° 0 mm 4 mps 740 mmHg 94%
    03:00 -20°C° 0 mm 4 mps 740 mmHg 93%
    04:00 -19°C° 0 mm 3 mps 741 mmHg 92%
    05:00 -21°C° 0 mm 3 mps 741 mmHg 90%
    06:00 -21°C° 0 mm 3 mps 742 mmHg 89%
    07:00 -21°C° 0 mm 3 mps 742 mmHg 88%
    08:00 -21°C° 0 mm 3 mps 742 mmHg 87%
    09:00 -18°C° 0 mm 2 mps 743 mmHg 84%
    10:00 -17°C° 0 mm 2 mps 744 mmHg 82%
    11:00 -16°C° 0 mm 2 mps 744 mmHg 79%
    12:00 -13°C° 0 mm 1 mps 745 mmHg 79%
    13:00 -13°C° 0 mm 1 mps 745 mmHg 79%
    14:00 -12°C° 0 mm 0 mps 745 mmHg 78%
    15:00 -14°C° 0 mm 0 mps 745 mmHg 77%
    16:00 -15°C° 0 mm 0 mps 745 mmHg 76%
    17:00 -16°C° 0 mm 0 mps 745 mmHg 74%
    18:00 -16°C° 0 mm 1 mps 745 mmHg 73%
    19:00 -16°C° 0 mm 1 mps 745 mmHg 72%
    20:00 -16°C° 0 mm 1 mps 745 mmHg 71%
    21:00 -18°C° 0 mm 2 mps 745 mmHg 70%
    22:00 -18°C° 0 mm 2 mps 745 mmHg 69%
    23:00 -18°C° 0 mm 2 mps 745 mmHg 69%

    Pasado mañana, 16 Noviembre, Sábado

    Tiempo Temperatura Precipitaciones Viento Presión Humedad
    00:00 -21°C° 0 mm 3 mps 745 mmHg 69%
    01:00 -21°C° 0 mm 3 mps 745 mmHg 69%
    02:00 -21°C° 0 mm 3 mps 745 mmHg 70%
    03:00 -21°C° 0 mm 3 mps 745 mmHg 71%
    04:00 -21°C° 0 mm 3 mps 745 mmHg 72%
    05:00 -20°C° 0 mm 4 mps 745 mmHg 73%
    06:00 -20°C° 0 mm 4 mps 744 mmHg 73%
    07:00 -20°C° 0 mm 4 mps 744 mmHg 73%
    08:00 -19°C° 0 mm 4 mps 744 mmHg 73%
    09:00 -19°C° 0 mm 5 mps 744 mmHg 72%
    10:00 -18°C° 0 mm 5 mps 744 mmHg 70%
    11:00 -15°C° 0 mm 5 mps 744 mmHg 69%
    12:00 -15°C° 0 mm 6 mps 743 mmHg 70%
    13:00 -15°C° 0 mm 6 mps 742 mmHg 70%
    14:00 -14°C° 0 mm 6 mps 742 mmHg 71%
    15:00 -14°C° 0 mm 6 mps 741 mmHg 71%
    16:00 -14°C° 0 mm 6 mps 741 mmHg 72%
    17:00 -15°C° 0 mm 7 mps 740 mmHg 72%
    18:00 -14°C° 0 mm 7 mps 740 mmHg 71%
    19:00 -14°C° 0 mm 7 mps 739 mmHg 69%
    20:00 -13°C° 0 mm 7 mps 739 mmHg 68%
    21:00 -13°C° 0 mm 7 mps 739 mmHg 73%
    22:00 -13°C° 0 mm 7 mps 739 mmHg 77%
    23:00 -13°C° 0 mm 7 mps 739 mmHg 82%

    17 Noviembre, Domingo

    Tiempo Temperatura Precipitaciones Viento Presión Humedad
    00:00 -14°C° 0 mm 6 mps 739 mmHg 85%
    01:00 -14°C° 0 mm 6 mps 738 mmHg 88%
    02:00 -13°C° 0 mm 5 mps 738 mmHg 91%
    03:00 -13°C° 0 mm 5 mps 738 mmHg 92%
    04:00 -14°C° 0 mm 4 mps 738 mmHg 93%
    05:00 -14°C° 0 mm 4 mps 738 mmHg 94%
    06:00 -12°C° 0 mm 4 mps 738 mmHg 94%
    07:00 -12°C° 0 mm 4 mps 738 mmHg 95%
    08:00 -11°C° 0 mm 4 mps 739 mmHg 95%
    09:00 -10°C° 0 mm 4 mps 738 mmHg 94%
    10:00 -10°C° 0 mm 4 mps 738 mmHg 93%
    11:00 -10°C° 0 mm 5 mps 738 mmHg 93%
    12:00 -10°C° 0 mm 5 mps 738 mmHg 92%
    13:00 -8°C° 0 mm 5 mps 737 mmHg 91%
    14:00 -8°C° 0 mm 5 mps 737 mmHg 90%
    15:00 -9°C° 0 mm 6 mps 737 mmHg 90%
    16:00 -10°C° 0 mm 6 mps 736 mmHg 90%
    17:00 -10°C° 0 mm 6 mps 736 mmHg 91%
    18:00 -10°C° 0 mm 6 mps 735 mmHg 91%
    19:00 -11°C° 0 mm 6 mps 735 mmHg 91%
    20:00 -11°C° 0 mm 5 mps 735 mmHg 92%
    21:00 -11°C° 0 mm 5 mps 734 mmHg 91%
    22:00 -11°C° 0 mm 5 mps 734 mmHg 91%
    23:00 -10°C° 0 mm 5 mps 734 mmHg 90%

    18 Noviembre, Lunes

    Tiempo Temperatura Precipitaciones Viento Presión Humedad
    00:00 -10°C° 0 mm 5 mps 733 mmHg 90%
    01:00 -10°C° 0 mm 5 mps 733 mmHg 90%
    02:00 -10°C° 0 mm 5 mps 732 mmHg 91%
    03:00 -10°C° 0 mm 5 mps 732 mmHg 91%
    04:00 -10°C° 0 mm 5 mps 731 mmHg 92%
    05:00 -10°C° 0 mm 5 mps 731 mmHg 93%
    06:00 -10°C° 0 mm 5 mps 731 mmHg 94%
    07:00 -10°C° 0 mm 5 mps 731 mmHg 95%
    08:00 -9°C° 0 mm 4 mps 731 mmHg 95%
    09:00 -9°C° 0 mm 4 mps 731 mmHg 95%
    10:00 -8°C° 0 mm 4 mps 731 mmHg 94%
    11:00 -8°C° 0 mm 4 mps 731 mmHg 94%
    12:00 -7°C° 0 mm 4 mps 731 mmHg 94%
    13:00 -7°C° 0 mm 4 mps 731 mmHg 94%
    14:00 -6°C° 0 mm 3 mps 731 mmHg 94%
    15:00 -7°C° 0 mm 3 mps 731 mmHg 95%
    16:00 -7°C° 0 mm 3 mps 731 mmHg 95%
    17:00 -8°C° 0 mm 3 mps 731 mmHg 96%
    18:00 -8°C° 0 mm 3 mps 730 mmHg 96%
    19:00 -8°C° 0 mm 3 mps 730 mmHg 96%
    20:00 -8°C° 0 mm 3 mps 730 mmHg 96%
    21:00 -8°C° 0.1 mm 3 mps 729 mmHg 96%
    22:00 -7°C° 0.1 mm 3 mps 729 mmHg 95%
    23:00 -7°C° 0.1 mm 3 mps 729 mmHg 95%

    19 Noviembre, Martes

    Tiempo Temperatura Precipitaciones Viento Presión Humedad
    00:00 -7°C° 0.2 mm 3 mps 728 mmHg 95%
    01:00 -7°C° 0.2 mm 3 mps 727 mmHg 96%
    02:00 -7°C° 0.2 mm 3 mps 727 mmHg 96%
    03:00 -7°C° 0.6 mm 3 mps 726 mmHg 96%
    04:00 -7°C° 0.6 mm 3 mps 726 mmHg 96%
    05:00 -6°C° 0.6 mm 2 mps 725 mmHg 96%
    06:00 -6°C° 0.7 mm 2 mps 725 mmHg 96%
    07:00 -6°C° 0.7 mm 2 mps 724 mmHg 96%
    08:00 -4°C° 0.7 mm 1 mps 724 mmHg 96%
    09:00 -6°C° 0.4 mm 2 mps 724 mmHg 96%
    10:00 -5°C° 0.4 mm 2 mps 725 mmHg 96%
    11:00 -5°C° 0.4 mm 2 mps 725 mmHg 95%
    12:00 -7°C° 0.1 mm 3 mps 725 mmHg 95%
    13:00 -7°C° 0.1 mm 3 mps 725 mmHg 95%
    14:00 -9°C° 0.1 mm 4 mps 726 mmHg 94%
    15:00 -10°C° 0 mm 4 mps 726 mmHg 95%
    16:00 -12°C° 0 mm 3 mps 726 mmHg 95%
    17:00 -14°C° 0 mm 3 mps 726 mmHg 96%
    18:00 -14°C° 0.1 mm 3 mps 726 mmHg 95%
    19:00 -14°C° 0.1 mm 3 mps 727 mmHg 95%
    20:00 -14°C° 0.1 mm 3 mps 727 mmHg 95%
    21:00 -16°C° 0.2 mm 4 mps 727 mmHg 94%
    22:00 -16°C° 0.2 mm 4 mps 726 mmHg 94%
    23:00 -16°C° 0.2 mm 4 mps 726 mmHg 94%
    Mostrar más